FW8051 Weather Reports


time (UTC)temp
F
wind
direction
speed
knots
gust
knots
rain 1hr
in
rain 24hr
in
rain mn
in
humidity
%
barometer
mb
20260505153040 63 169 0.0 3.5 0.04 0.59 0.47 93 1013.0
20260505151537 63 200 2.6 7.0 0.04 0.59 0.47 92 1013.2
20260505130104 64 170 1.7 7.8 0.03 0.43 0.31 89 1013.5
20260505124541 65 146 3.5 7.0 0.00 0.40 0.28 88 1013.5
20260505123043 65 192 3.5 7.0 0.00 0.40 0.28 89 1013.6
20260505121535 65 218 7.0 9.6 0.00 0.40 0.28 89 1013.5
20260505120048 65 186 2.6 7.0 0.00 0.40 0.28 88 1013.4
20260505114541 65 141 3.5 7.0 0.00 0.40 0.28 88 1013.4
20260505113044 66 0 1.7 7.0 0.00 0.40 0.28 89 1013.5
20260505111540 65 185 5.2 9.6 0.00 0.40 0.28 89 1013.7
20260505101540 64 123 9.6 12.2 0.00 0.40 0.28 89 1013.1
20260505100037 65 106 9.6 13.9 0.00 0.40 0.28 88 1013.1
20260505094537 66 103 7.8 10.4 0.00 0.40 0.28 88 1013.1
20260505093042 66 142 3.5 7.0 0.00 0.40 0.28 89 1012.9
20260505091541 65 149 3.5 9.6 0.00 0.40 0.28 90 1013.0
20260505090041 67 157 2.6 11.3 0.00 0.40 0.28 90 1012.8
20260505084541 65 360 7.0 13.0 0.00 0.40 0.28 92 1012.8
20260505083042 63 44 2.6 7.0 0.00 0.40 0.28 94 1012.6
20260505081549 63 69 3.5 5.2 0.00 0.40 0.28 94 1012.6
20260505080047 62 28 3.5 5.2 0.00 0.40 0.28 94 1012.7
20260505074540 62 39 4.3 7.0 0.00 0.40 0.28 94 1012.9
20260505073046 62 18 2.6 5.2 0.00 0.40 0.28 94 1012.8
20260505071549 61 50 3.5 5.2 0.00 0.40 0.28 94 1012.7
20260505070043 62 80 1.7 3.5 0.00 0.40 0.28 94 1012.3
20260505064543 62 53 0.9 4.3 0.00 0.40 0.28 94 1012.2
20260505063042 62 28 1.7 3.5 0.00 0.40 0.28 95 1012.1
20260505061539 62 109 0.9 2.6 0.00 0.40 0.28 94 1012.0
20260505060042 61 0 0.0 2.6 0.00 0.40 0.28 95 1012.1
20260505054550 61 263 2.6 3.5 0.00 0.40 0.28 94 1012.1
20260505053055 61 0 2.6 6.1 0.00 0.40 0.28 94 1011.8
20260505051544 61 246 1.7 3.5 0.00 0.39 0.27 94 1011.7
20260505041543 62 179 5.2 9.6 0.00 0.39 0.27 94 1011.5
20260505040044 62 155 1.7 8.7 0.00 0.39 0.27 95 1011.5
20260505034540 62 360 6.1 12.2 0.00 0.39 0.27 95 1011.5
20260505033045 62 150 7.0 11.3 0.02 0.39 0.27 94 1011.5
20260505031536 61 360 7.8 13.0 0.04 0.39 0.27 94 1011.6
20260505030043 62 360 9.6 13.0 0.05 0.39 0.27 94 1011.8
20260505024541 62 211 8.7 15.6 0.05 0.39 0.27 94 1011.9
20260505023045 62 190 13.9 20.9 0.03 0.37 0.25 94 1012.0
20260505021538 62 209 12.2 21.7 0.03 0.34 0.22 94 1012.2
20260505020040 62 360 12.2 18.2 0.03 0.33 0.22 95 1012.4
20260505014544 62 184 11.3 17.4 0.03 0.33 0.22 95 1012.4
20260505013044 62 183 8.7 14.8 0.03 0.33 0.21 94 1012.7
20260505011550 62 155 8.7 13.9 0.01 0.31 0.19 95 1012.9
20260505010047 62 161 8.7 13.0 0.04 0.30 0.18 94 1013.1
20260505004541 62 175 7.0 11.3 0.10 0.30 0.18 94 1013.3
20260505003040 62 171 6.1 11.3 0.10 0.29 0.18 94 1013.6
20260505001547 62 360 6.1 11.3 0.10 0.29 0.17 94 1013.7
20260505000036 62 169 5.2 11.3 0.06 0.25 0.13 94 1013.9
20260504234543 62 360 8.7 15.6 0.03 0.20 0.08 94 1014.3
20260504233043 61 205 5.2 11.3 0.04 0.19 0.07 93 1014.5
20260504231541 62 165 7.8 13.0 0.06 0.18 0.07 93 1014.8
20260504230037 62 185 7.8 13.0 0.07 0.18 0.07 94 1014.8
20260504224536 61 191 7.8 13.9 0.06 0.17 0.05 93 1015.0
20260504223040 61 189 8.7 17.4 0.04 0.14 0.03 93 1015.1
20260504221544 62 178 12.2 22.6 0.04 0.12 0.00 93 1015.3
20260504220100 61 182 11.3 17.4 0.06 0.11 0.00 93 1015.4
20260504214548 61 185 8.7 13.0 0.08 0.11 0.11 93 1015.7
20260504213047 62 199 6.1 10.4 0.09 0.10 0.10 92 1015.6
20260504211537 62 180 7.0 10.4 0.06 0.07 0.07 92 1016.0
20260504210041 62 181 4.3 10.4 0.04 0.05 0.05 92 1016.2
20260504204539 62 196 7.0 14.8 0.01 0.02 0.02 92 1016.4
20260504203041 62 360 9.6 15.6 0.00 0.00 0.00 92 1016.5
20260504201538 62 191 9.6 16.5 0.00 0.00 0.00 92 1016.3
20260504200042 62 161 8.7 14.8 0.00 0.00 0.00 91 1016.2
20260504194545 62 152 7.8 13.0 0.00 0.00 0.00 91 1016.1
20260504193040 62 155 8.7 13.9 0.00 0.00 0.00 91 1016.0
20260504191551 62 150 7.8 12.2 0.00 0.00 0.00 91 1015.8
20260504190044 62 159 7.0 13.0 0.00 0.00 0.00 92 1015.8
20260504184550 62 182 7.8 13.0 0.00 0.00 0.00 91 1015.9
20260504183049 62 196 9.6 14.8 0.00 0.00 0.00 91 1015.9
20260504181546 62 184 7.8 14.8 0.00 0.00 0.00 91 1015.7
20260504180041 63 219 8.7 13.9 0.00 0.00 0.00 90 1015.7
20260504174538 63 360 7.0 13.0 0.00 0.00 0.00 90 1015.8
20260504173037 63 192 7.0 13.9 0.00 0.00 0.00 89 1015.7
20260504171536 63 155 7.8 14.8 0.00 0.00 0.00 89 1015.8